AO-07 1 07530U 74089B 25310.25700343 -.00000039 00000-0 45978-4 0 9998 2 07530 101.9978 316.1385 0012112 195.7119 178.5593 12.53693089332584 UO-11 1 14781U 84021B 25309.85904320 .00002240 00000-0 23819-3 0 9990 2 14781 97.7754 273.4767 0007103 190.9114 169.1951 14.89948613223860 AO-27 1 22825U 93061C 25310.14686820 .00000185 00000-0 87571-4 0 9990 2 22825 98.7196 12.3187 0009025 40.9095 319.2763 14.30855644675106 FO-29 1 24278U 96046B 25310.24910613 .00000004 00000-0 42319-4 0 9992 2 24278 98.5495 184.2754 0349256 314.8526 42.4722 13.53259067443018 NOAA-15 1 25338U 98030A 25310.29979011 .00000230 00000-0 11220-3 0 9994 2 25338 98.5258 331.7692 0009117 282.0609 77.9551 14.27047903429507 GO-32 1 25397U 98043D 25310.24914072 .00000131 00000-0 76872-4 0 9999 2 25397 98.9887 292.6244 0002109 116.0788 244.0607 14.24361039419593 ISS 1 25544U 98067A 25310.29236606 .00011954 00000-0 21866-3 0 9991 2 25544 51.6335 322.9076 0005124 22.8618 337.2598 15.49789706537203 NO-44 1 26931U 01043C 25309.85483008 .00000255 00000-0 12616-3 0 9995 2 26931 67.0493 101.8612 0007193 272.0195 88.0083 14.31820971258476 SO-50 1 27607U 02058C 25309.83351354 .00001845 00000-0 23988-3 0 9999 2 27607 64.5517 99.6443 0069931 303.4276 56.0154 14.82172765231347 CO-55 1 27844U 03031E 25309.98622433 .00000451 00000-0 21491-3 0 9998 2 27844 98.6778 316.3617 0010644 111.5510 248.6805 14.24130870159905 CO-57 1 27848U 03031J 25310.00525989 .00000388 00000-0 19012-3 0 9990 2 27848 98.6804 316.2711 0010365 127.5860 232.6262 14.23446396159629 RS-22 1 27939U 03042A 25310.30872748 .00001729 00000-0 27862-3 0 9996 2 27939 98.3371 123.5443 0010279 254.2835 227.3713 14.72805765182734 CO-58 1 28895U 05043F 25309.86551750 .00002638 00000-0 43128-3 0 9990 2 28895 98.2704 96.3311 0014225 189.7658 170.3274 14.71663386 68895 CO-65 1 32785U 08021C 25310.24532124 .00008640 00000-0 59039-3 0 9997 2 32785 97.8046 282.8431 0011770 69.9732 290.2761 15.06352468951597 CO-66 1 32791U 08021J 25309.48700335 .00018405 00000-0 77452-3 0 9998 2 32791 97.7416 293.4071 0005291 45.0360 315.1304 15.23426155953120 RS-30 1 32953U 08025A 25310.25378838 .00000024 00000-0 10374-3 0 9996 2 32953 82.4995 134.1183 0019947 78.7552 281.5768 12.43170200791998 NOAA-19 1 33591U 09005A 25310.28000106 .00000099 00000-0 76918-4 0 9996 2 33591 98.9813 15.7059 0012869 302.9631 57.0303 14.13424177862994 SRMSAT 1 37841U 11058D 25309.50093372 .00000484 00000-0 11916-3 0 9993 2 37841 19.9732 333.3287 0011535 263.0683 256.2900 14.11491604726176 ZACUBE-1 1 39417U 13066B 25310.13978402 .00007553 00000-0 62554-3 0 9990 2 39417 97.7982 266.6576 0041351 272.3523 87.2966 14.98483303647293 Delfi-N3xt 1 39428U 13066N 25310.31067367 .00012491 00000-0 11947-2 0 9997 2 39428 97.8315 226.4557 0078794 225.8805 133.5915 14.91015449641362 GOMX-1 1 39430U 13066Q 25310.31108506 .00006139 00000-0 93720-3 0 9993 2 39430 97.6627 159.7149 0132328 73.0012 288.5647 14.68350835637195 LO-74 1 39440U 13066AA 25310.31484733 .00007698 00000-0 74943-3 0 9990 2 39440 97.8652 254.0605 0061899 46.6465 313.9887 14.91352112643747 AO-73 1 39444U 13066AE 25310.23293782 .00012863 00000-0 89419-3 0 9991 2 39444 97.8021 273.0980 0037357 239.5525 120.2009 15.05079465646077 DTUSAT-2 1 40030U 14033W 25310.18821931 .00010459 00000-0 63263-3 0 9994 2 40030 98.0723 289.6280 0006468 278.6251 81.4244 15.10835734618968 EO-80 1 40032U 14033Y 25309.93561113 .00009800 00000-0 59206-3 0 9990 2 40032 98.0606 288.8076 0006730 200.9672 159.1281 15.10894182618901 LILACSAT-2 1 40908U 15049K 25310.31272470 .00043481 00000-0 97647-3 0 9993 2 40908 97.4952 334.6067 0007887 355.9931 4.1251 15.43210884561284 IO-86 1 40931U 15052B 25151.18580175 .00001241 00000-0 78118-4 0 9996 2 40931 6.0006 24.0987 0012733 338.8432 21.1169 14.78805930523159 Horyu-4 1 41340U 16012D 25309.94227343 .00048571 00000-0 94422-3 0 9994 2 41340 30.9938 201.8174 0004382 221.0793 138.9526 15.46329466535845 Lapan A3 1 41603U 16040E 25310.29790012 .00011445 00000-0 38189-3 0 9993 2 41603 97.1423 309.1915 0012800 93.6056 266.6650 15.31133475520685 CAS-2T 1 41847U 16066G 25310.17804278 .00001878 00000-0 27158-3 0 9991 2 41847 98.4073 23.2757 0345421 85.7507 278.3070 14.43997444472609 TechnoSat 1 42829U 17042E 25310.24996990 .00005710 00000-0 42692-3 0 9997 2 42829 97.4048 112.0450 0020085 131.3129 228.9830 15.02983717453194 AO-91 1 43017U 17073E 25310.15665750 .00015998 00000-0 76723-3 0 9999 2 43017 97.4987 177.2063 0165061 16.6044 344.0499 15.07665808431723 S-Net D 1 43186U 18014G 25310.27167354 .00009593 00000-0 53603-3 0 9998 2 43186 97.5485 211.6718 0010723 72.1092 288.1307 15.13666961425006 S-Net B 1 43187U 18014H 25310.27915558 .00009796 00000-0 54757-3 0 9992 2 43187 97.5490 211.6578 0011304 67.9694 292.2737 15.13642136425004 S-Net A 1 43188U 18014J 25310.27152875 .00009453 00000-0 52809-3 0 9994 2 43188 97.5500 211.8213 0011259 68.6744 291.5689 15.13672258425004 S-Net C 1 43189U 18014K 25310.28199624 .00009708 00000-0 54262-3 0 9997 2 43189 97.5514 211.8710 0012577 62.0673 298.1830 15.13635146423559 Ten-Koh 1 43677U 18084G 25310.06217952 .00004013 00000-0 31562-3 0 9999 2 43677 98.0673 128.2259 0009318 130.5377 229.6659 15.01435413382669 PO-101 1 43678U 18084H 25310.27944216 .00002836 00000-0 23821-3 0 9993 2 43678 98.1083 132.2765 0007923 136.1844 224.0008 14.99173812382805 QO-100 1 43700U 18090A 25310.28308719 .00000154 00000-0 00000-0 0 9991 2 43700 0.0100 300.7520 0002756 326.2098 266.5010 1.00272095 25445 MinXSS-2 1 43758U 18099A 25310.14262138 .00031258 00000-0 10112-2 0 9998 2 43758 97.4853 17.0727 0009769 354.0353 6.0771 15.31956053379810 AO-95 1 43770U 18099N 25309.62883632 .00013267 00000-0 60695-3 0 9993 2 43770 97.4735 6.2114 0011060 58.7641 301.4677 15.20597993379176 SNUSat 2 1 43782U 18099AA 25310.13510284 .00012793 00000-0 64381-3 0 9993 2 43782 97.4414 2.1839 0011244 3.9659 356.1661 15.17290272379151 SnugLite 1 43784U 18099AC 25310.08568916 .00015242 00000-0 68996-3 0 9992 2 43784 97.4225 2.0607 0003304 22.0979 338.0399 15.20979541379334 ITASat 1 1 43786U 18099AE 25310.12311420 .00009104 00000-0 48634-3 0 9992 2 43786 97.4379 1.2098 0014849 53.5179 306.7419 15.15233693379080 EAGLET 1 1 43790U 18099AJ 25310.07974963 .00006289 00000-0 38413-3 0 9993 2 43790 97.4582 0.5634 0012647 42.2498 317.9703 15.10568098378626 ESEO 1 43792U 18099AL 25310.07445277 .00003329 00000-0 24961-3 0 9991 2 43792 97.4281 351.7485 0012588 18.4170 341.7509 15.03261323378278 JO-97 1 43803U 18099AX 25309.96400253 .00019132 00000-0 76443-3 0 9996 2 43803 97.4484 7.9350 0006321 353.3324 6.7829 15.25153534379505 Suomi 100 1 43804U 18099AY 25310.11657746 .00016109 00000-0 70767-3 0 9991 2 43804 97.4543 6.8890 0011019 353.3534 6.7554 15.21944398379419 ISAT 1 43879U 18111D 25309.69926878 .00040419 00000-0 10736-2 0 9994 2 43879 97.5897 228.0254 0009863 46.5356 313.6707 15.38110883376546 UWE-4 1 43880U 18111E 25309.23500265 .00025295 00000-0 82109-3 0 9993 2 43880 97.5840 224.7976 0013054 54.2851 305.9603 15.31855954376337 Sparrow 1 43881U 18111F 25309.73362962 .00042866 00000-0 10701-2 0 9990 2 43881 97.6073 231.6038 0009346 73.1645 287.0624 15.40008280376664 Prox-1 1 44339U 19036A 25309.93934898 .00017698 00000-0 20528-2 0 9994 2 44339 23.9946 158.2384 0007291 342.4466 17.5779 14.83785116340194 Taurus 1 1 44530U 19059C 25310.32317582 .00041163 00000-0 71007-2 0 9994 2 44530 98.6220 97.1984 0008782 287.2175 72.8066 14.68276855325898 Duchifat 3 1 44854U 19089C 25309.85828101 .00269717 00000-0 17742-2 0 9999 2 44854 36.9304 113.0860 0008834 8.1125 351.9782 15.73905218326277 TO-108 1 44881U 19093C 25310.27272264 .00002556 00000-0 29811-3 0 9992 2 44881 97.7797 22.7152 0015113 99.2999 260.9927 14.85979789318307 FloripaSat 1 1 44885U 19093G 25310.24321164 .00009765 00000-0 77778-3 0 9991 2 44885 97.8079 38.2782 0011916 84.9857 275.2726 15.00518211319176 RS-44 1 44909U 19096E 25309.95657295 .00000013 00000-0 13803-4 0 9991 2 44909 82.5181 128.0543 0216691 306.4750 51.6554 12.79745128273796 SALSAT 1 46495U 20068K 25309.93906180 .00010376 00000-0 41329-3 0 9998 2 46495 97.8759 295.2570 0011288 14.8450 345.3116 15.25383650281278 CSS (TIANHE-1) 1 48274U 21035A 25310.14417353 .00066877 00000-0 78556-3 0 9993 2 48274 41.4668 238.9361 0005883 331.1905 28.8608 15.60501928258312 TUBIN 1 48900U 21059X 25310.17103826 .00236128 00000-0 10391-2 0 9995 2 48900 97.6684 133.5903 0001803 24.1439 335.9914 15.83931043243495 CUTE 1 49263U 21088D 25310.20817307 .00036919 00000-0 54269-3 0 9999 2 49263 97.4391 31.5029 0006226 55.7749 304.4095 15.55370460227611 TeikyoSat 4 1 49396U 21102B 25310.05308098 .00003231 00000-0 21148-3 0 9999 2 49396 97.3943 343.0269 0011930 348.1709 11.9238 15.08382599219074 Z-Sat 1 49399U 21102E 25310.28064515 .00006419 00000-0 33740-3 0 9992 2 49399 97.3630 347.3235 0016040 308.0770 51.9016 15.15909700219648 KOSEN 1 1 49402U 21102H 25310.11138969 .00009897 00000-0 42611-3 0 9994 2 49402 97.3529 351.7765 0013246 275.4180 84.5545 15.22723670220025 HO-113 1 50466U 21131B 25310.26735603 .00000730 00000-0 24074-3 0 9992 2 50466 98.5070 38.8721 0004931 58.0615 302.1053 14.41032322203004 SNUGLITE 2 1 52899U 22065F 25310.29906791 .00001844 00000-0 36342-3 0 9990 2 52899 98.1904 91.0478 0007615 12.3196 347.8191 14.63675477178386 UmKA 1 (RS40S) 1 57172U 23091G 25310.28490246 .00009829 00000-0 49339-3 0 9992 2 57172 97.5396 4.9165 0014041 169.7304 190.4219 15.17421174130168 CubeBel-2 (EU11S) 1 57175U 23091K 25310.26513349 .00016311 00000-0 70075-3 0 9998 2 57175 97.5392 7.0748 0011479 172.7483 187.3921 15.22698598130305 ENSO 1 58470U 23185J 25310.03136632 .01865694 32147-2 16725-2 0 9999 2 58470 97.3403 32.8668 0008291 267.1869 92.8467 16.13545671108479 SONATE-2 1 59112U 24043Q 25310.28882706 .00036042 00000-0 83228-3 0 9994 2 59112 97.5320 85.2595 0008918 298.6612 61.3737 15.42408821 93352 MO-122 1 60209U 24125G 25310.12349562 .00042121 00000-0 94382-3 0 9993 2 60209 97.2566 160.5410 0015006 324.1567 35.8673 15.43195825 74951 GRBBeta 1 60237U 24128C 25310.26325413 .00007142 00000-0 50811-3 0 9994 2 60237 61.9905 277.1090 0057113 88.8998 271.8637 15.04205167 72704 Curium One 1 60242U 24128H 25310.26979415 .00014111 00000-0 89365-3 0 9997 2 60242 61.9802 272.7848 0057115 85.4400 275.3215 15.07883366 72786 ROBUSTA-3A 1 60243U 24128J 25310.25832493 .00013797 00000-0 88896-3 0 9998 2 60243 61.9876 274.2054 0056851 83.0491 277.7064 15.07283944 72766 CatSat 1 60246U 24125J 25310.12840516 .00038849 00000-0 10483-2 0 9990 2 60246 97.2377 157.9845 0034776 280.5968 79.1361 15.37054401 72892 HYPERVIEW-1G (RS66S) 1 61772U 24199AP 25310.30032785 .00107971 00000-0 23321-2 0 9995 2 61772 97.3254 179.3731 0012441 23.9642 336.2183 15.44041790 99980 AO-123 1 61781U 24199AY 25310.27773338 .00014364 00000-0 48121-3 0 9996 2 61781 97.3286 176.1461 0016160 32.1889 328.0335 15.30908743 99766 ZIMSAT 2 1 61783U 24199BA 25310.30206181 .00353734 00000-0 42773-2 0 9992 2 61783 97.3172 181.8473 0009935 23.1710 336.9993 15.59480671103303 HADES-R (SO-124) 1 62690U 25009CK 25309.70683572 .00140979 00000-0 27543-2 0 9999 2 62690 97.3959 31.2451 0003027 264.0763 96.0141 15.46934669 45039 HYDRA-T 1 62692U 25009CM 25310.16719125 .00142075 00000-0 26839-2 0 9993 2 62692 97.3954 31.8489 0003053 255.2884 104.8028 15.47905902 45118 JINJUSat 1B 1 63210U 25052A 25310.25798397 .00024021 00000-0 96327-3 0 9996 2 63210 97.4210 202.6831 0004940 128.0828 232.0856 15.24991078 36028 NUSHSAT 1 1 63211U 25052B 25310.27530227 .00027186 00000-0 10639-2 0 9991 2 63211 97.4193 202.7786 0004769 130.9971 229.1681 15.25782364 36030 TEVEL2-4 1 63213U 25052D 25310.19600998 .00025283 00000-0 10066-2 0 9997 2 63213 97.4119 202.3247 0003486 135.4051 224.7468 15.25228825 36011 TEVEL2-5 1 63214U 25052E 25309.67504368 .00018739 00000-0 74930-3 0 9992 2 63214 97.4117 201.8005 0003393 138.4925 221.6571 15.25144575 35936 TEVEL2-6 1 63215U 25052F 25309.94363778 .00021258 00000-0 85020-3 0 9993 2 63215 97.4122 202.0563 0003476 137.5677 222.5830 15.25110991 35978 TEVEL2-1 1 63217U 25052H 25310.17576223 .00025031 00000-0 10084-2 0 9993 2 63217 97.4093 202.1268 0003024 149.5283 210.6131 15.24833959 36007 TEVEL2-3 1 63218U 25052J 25310.24102840 .00024616 00000-0 99125-3 0 9994 2 63218 97.4096 202.1952 0002983 151.4022 208.7379 15.24852353 36019 TEVEL2-2 1 63219U 25052K 25310.24216823 .00025217 00000-0 10158-2 0 9998 2 63219 97.4094 202.1924 0002994 150.8920 209.2486 15.24837585 36014 TEVEL2-9 1 63237U 25052AD 25310.23616832 .00023312 00000-0 97899-3 0 9993 2 63237 97.4165 201.9413 0005944 194.0910 166.0162 15.23436858 35983 TEVEL2-7 1 63238U 25052AE 25310.24679740 .00023634 00000-0 99601-3 0 9992 2 63238 97.4160 201.9339 0006039 195.2047 164.9010 15.23313776 35988 TEVEL2-8 1 63239U 25052AF 25310.25179217 .00023305 00000-0 98310-3 0 9999 2 63239 97.4155 201.9252 0006054 195.7407 164.3642 15.23284552 35983 HYDRA-W 1 63490U 25052BL 25309.94736672 .00066419 00000-0 19311-2 0 9992 2 63490 97.4084 203.3717 0007264 178.8048 181.3214 15.35185466 36063 HADES-ICM (SO-125) 1 63492U 25052BN 25310.22970199 .00077865 00000-0 23518-2 0 9992 2 63492 97.4091 203.4741 0007570 185.7464 174.3693 15.33925454 36093 Dragonfly 1 65729U 98067XH 25310.29850792 .00128074 00000-0 14973-2 0 9990 2 65729 51.6311 320.7027 0003930 83.8399 276.3042 15.60650724 7450 RSP-03 1 65732U 98067XL 25310.25025286 .00107296 00000-0 13166-2 0 9998 2 65732 51.6306 321.1300 0006018 63.6612 296.4998 15.59460594 7456 GHS-01 1 65733U 98067XM 25310.28797262 .00146135 00000-0 16516-2 0 9999 2 65733 51.6319 320.6332 0004467 81.6850 278.4650 15.61457116 7465 BOTAN 1 65942U 98067XP 25310.23832496 .00095041 00000-0 13891-2 0 9997 2 65942 51.6323 322.5492 0004830 28.2597 331.8656 15.54833848 4176